EW5862 Weather Reports


time (UTC)temp
C
wind
direction
speed
KPH
gust
KPH
rain 1hr
cm
rain 24hr
cm
rain mn
cm
humidity
%
barometer
mb
20260504050517 14 0.0 0.0 0.00 0.05 0.00 82 1011.4
20260504045517 14 0.0 0.0 0.00 0.05 0.00 82 1011.4
20260504044517 14 0.0 0.0 0.00 0.05 0.00 82 1011.4
20260504043517 14 0.0 0.0 0.00 0.05 0.00 83 1011.4
20260504042517 14 0.0 0.0 0.00 0.05 0.00 83 1011.5
20260504041517 14 0.0 0.0 0.00 0.05 0.00 83 1011.6
20260504040517 14 0.0 0.0 0.00 0.05 0.00 83 1011.5
20260504035517 14 0.0 0.0 0.00 0.05 0.00 83 1011.6
20260504034517 14 338 1.6 4.8 0.00 0.05 0.00 83 1011.8
20260504033517 14 338 1.6 6.4 0.00 0.05 0.00 83 1011.9
20260504032517 14 0.0 0.0 0.00 0.05 0.00 83 1011.9
20260504031517 14 0.0 0.0 0.00 0.05 0.00 83 1012.1
20260504030517 14 338 1.6 4.8 0.00 0.05 0.00 83 1012.2
20260504025517 14 338 3.2 4.8 0.00 0.05 0.00 83 1012.1
20260504024517 14 338 4.8 6.4 0.00 0.05 0.00 84 1012.4
20260504023517 14 338 4.8 8.0 0.00 0.05 0.00 84 1012.4
20260504022537 14 338 4.8 8.0 0.00 0.05 0.00 84 1012.3
20260504021517 14 0.0 0.0 0.00 0.05 0.00 84 1012.4
20260504020517 14 0.0 0.0 0.00 0.05 0.00 83 1012.4
20260504015517 14 0.0 0.0 0.00 0.05 0.00 83 1012.4
20260504014517 14 0.0 0.0 0.00 0.05 0.00 84 1012.4
20260504013517 14 0.0 0.0 0.00 0.05 0.00 84 1012.4
20260504012517 14 338 1.6 6.4 0.00 0.05 0.00 84 1012.5
20260504011517 14 338 1.6 8.0 0.00 0.05 0.00 84 1012.3
20260504010537 15 338 3.2 8.0 0.00 0.05 0.00 84 1012.4
20260504005517 15 0.0 0.0 0.00 0.05 0.00 83 1012.4
20260504004517 15 0.0 0.0 0.00 0.05 0.00 83 1012.4
20260504003516 15 0.0 0.0 0.00 0.05 0.00 83 1012.4
20260504002516 15 0.0 0.0 0.00 0.05 0.00 83 1012.5
20260504001516 15 0.0 0.0 0.00 0.05 0.00 83 1012.5
20260504000517 15 0.0 0.0 0.00 0.05 0.00 83 1012.5
20260503235536 15 0.0 0.0 0.00 0.05 0.00 83 1012.5
20260503234517 15 0.0 0.0 0.00 0.05 0.00 83 1012.4
20260503233516 15 338 3.2 6.4 0.00 0.05 0.00 83 1012.4
20260503232536 15 0.0 0.0 0.00 0.05 0.00 83 1012.5
20260503231516 15 0.0 0.0 0.00 0.05 0.00 84 1012.5
20260503230516 15 0.0 0.0 0.00 0.05 0.00 83 1012.5
20260503225517 15 0.0 0.0 0.00 0.05 0.00 84 1012.6
20260503224557 15 0.0 0.0 0.00 0.05 0.00 84 1012.5
20260503223516 15 0.0 0.0 0.00 0.05 0.00 84 1012.5
20260503222516 15 338 4.8 8.0 0.00 0.05 0.00 84 1012.5
20260503221537 15 338 3.2 8.0 0.00 0.05 0.00 84 1012.7
20260503220516 15 338 4.8 14.5 0.00 0.05 0.00 84 1012.7
20260503215516 15 338 8.0 17.7 0.00 0.05 0.05 84 1012.6
20260503214517 15 338 6.4 14.5 0.00 0.05 0.05 84 1012.7
20260503213516 15 338 4.8 12.9 0.00 0.05 0.05 84 1012.8
20260503212517 15 338 6.4 16.1 0.00 0.05 0.05 84 1012.8
20260503211517 15 338 4.8 11.3 0.00 0.05 0.05 84 1012.8
20260503210516 15 338 4.8 11.3 0.00 0.05 0.05 84 1012.8
20260503205537 15 338 8.0 14.5 0.00 0.05 0.05 84 1012.5
20260503204516 15 338 3.2 8.0 0.00 0.05 0.05 84 1012.5
20260503203516 15 338 1.6 4.8 0.00 0.05 0.05 84 1012.4
20260503202517 15 0.0 1.6 0.00 0.05 0.05 84 1012.5
20260503201516 15 0.0 3.2 0.00 0.05 0.05 84 1012.4
20260503200516 15 338 3.2 6.4 0.00 0.05 0.05 84 1012.2
20260503195516 15 338 4.8 8.0 0.00 0.05 0.05 84 1012.0
20260503194516 15 338 4.8 6.4 0.00 0.05 0.05 84 1011.7
20260503193516 15 315 1.6 4.8 0.00 0.05 0.05 84 1011.5
20260503192516 15 315 3.2 6.4 0.00 0.05 0.05 84 1011.2
20260503191516 15 338 1.6 3.2 0.00 0.05 0.05 83 1011.1
20260503190536 15 315 3.2 4.8 0.00 0.05 0.05 82 1011.0
20260503185516 16 338 3.2 6.4 0.00 0.05 0.05 82 1011.0
20260503184516 16 338 1.6 6.4 0.00 0.05 0.05 81 1010.7
20260503183536 16 338 1.6 4.8 0.00 0.05 0.05 81 1010.7
20260503182516 16 338 4.8 8.0 0.00 0.05 0.05 80 1010.7
20260503181516 16 338 4.8 11.3 0.00 0.05 0.05 79 1011.1
20260503180516 16 338 1.6 3.2 0.00 0.05 0.05 79 1010.8
20260503175516 16 338 3.2 8.0 0.00 0.05 0.05 80 1010.8
20260503174536 16 338 9.7 16.1 0.00 0.05 0.05 81 1010.6
20260503173516 16 315 4.8 8.0 0.00 0.05 0.05 81 1010.6
20260503172536 16 338 1.6 6.4 0.00 0.05 0.05 81 1010.7
20260503171516 16 315 8.0 16.1 0.00 0.05 0.05 79 1010.9
20260503170516 17 315 16.1 30.6 0.00 0.05 0.05 72 1011.2
20260503150516 22 338 11.3 27.4 0.00 0.05 0.05 60 1011.7
20260503130516 21 338 6.4 19.3 0.00 0.05 0.05 66 1013.0
20260503110515 15 0.0 0.0 0.00 0.05 0.05 81 1013.7
20260503081517 14 338 6.4 14.5 0.03 0.03 0.03 82 1014.2
20260503080517 14 338 4.8 11.3 0.03 0.03 0.03 82 1014.2